This demonstration page uses our WeatherBlox Daily Observations layout. Learn more.

Left ArrowRight Arrow

38.88101, -77.10428

Hourly Observations for November 8, 2018

Temp ( °F °C ) Dew Point ( °F °C ) Humidity (%) Winds ( mph kmh ) Pressure ( in mb ) Visibility ( mi km ) Precip ( " mm )
12:52 am 00:52 Cloudy 55 12.8 48 8.9 77 77 N 6 9 30.15 1021 10 16.0934 0 0
1:52 am 01:52 Mostly Cloudy 55 12.8 40 4.4 57 57 N 7 11 30.15 1021 10 16.0934 0 0
2:52 am 02:52 Cloudy 56 13.3 36 2.2 47 47 N 12 19 30.16 1021 10 16.0934 0 0
3:52 am 03:52 Cloudy 55 12.8 36 2.2 49 49 N 13 20 30.17 1022 10 16.0934 0 0
4:52 am 04:52 Cloudy 54 12.2 35 1.7 49 49 N 7 11 30.19 1022 10 16.0934 0 0
5:52 am 05:52 Cloudy 53 11.7 34 1.1 48 48 N 15 24 30.2 1023 10 16.0934 0 0
6:52 am 06:52 Mostly Cloudy 53 11.7 34 1.1 48 48 N 17 28 30.22 1023 10 16.0934 0 0
7:52 am 07:52 Mostly Cloudy 53 11.7 34 1.1 48 48 N 13 20 30.26 1025 10 16.0934 0 0
8:52 am 08:52 Mostly Cloudy 53 11.7 34 1.1 48 48 NNE 15 24 30.28 1025 10 16.0934 0 0
9:52 am 09:52 Mostly Cloudy 52 11.1 35 1.7 53 53 NNE 12 19 30.29 1026 10 16.0934 0 0
10:52 am 10:52 Mostly Cloudy 56 13.3 35 1.7 46 46 NNE 12 19 30.29 1026 10 16.0934 0 0
11:52 am 11:52 Partly Cloudy 58 14.4 34 1.1 41 41 NNW 10 17 30.28 1025 10 16.0934 0 0
12:52 pm 12:52 Mostly Sunny 59 15 33 0.6 38 38 VRB 3 6 30.27 1025 10 16.0934 0 0
1:52 pm 13:52 Mostly Sunny 60 15.6 34 1.1 38 38 NNW 8 13 30.25 1025 10 16.0934 0 0
2:52 pm 14:52 Partly Cloudy 61 16.1 34 1.1 36 36 Calm 30.26 1025 10 16.0934 0 0
3:52 pm 15:52 Mostly Cloudy 59 15 33 0.6 38 38 N 9 15 30.26 1025 10 16.0934 0 0
4:52 pm 16:52 Mostly Cloudy 57 13.9 35 1.7 44 44 N 7 11 30.27 1025 10 16.0934 0 0
5:52 pm 17:52 Mostly Cloudy 54 12.2 35 1.7 49 49 N 8 13 30.29 1026 10 16.0934 0 0
6:52 pm 18:52 Mostly Cloudy 54 12.2 35 1.7 49 49 NNW 8 13 30.31 1026 10 16.0934 0 0
7:52 pm 19:52 Mostly Cloudy 52 11.1 37 2.8 57 57 NE 9 15 30.3 1026 10 16.0934 0 0
8:52 pm 20:52 Mostly Cloudy 52 11.1 37 2.8 57 57 ENE 6 9 30.31 1026 10 16.0934 0 0
9:52 pm 21:52 Mostly Cloudy 51 10.6 36 2.2 56 56 NE 8 13 30.31 1027 10 16.0934 0 0
10:52 pm 22:52 Cloudy 51 10.6 37 2.8 59 59 NE 7 11 30.31 1026 10 16.0934 0 0
11:52 pm 23:52 Cloudy 51 10.6 35 1.7 54 54 NNE 7 11 30.31 1026 10 16.0934 0 0

Powered by AerisWeather